Showing default

ORBCOMM FM 108, 41187

Orbit data source: Space-Track

ORBCOMM FM 108, 41187 is a payload satellite owned by Orbcomm (US) in LEO that was launched on Tue, 22 Dec 2015 UTC via an FALCON 9 launch vehicle from the Air Force Eastern Test Range (AFETR). Payload-class satellites include a variety of spacecraft equipped with specific instruments for various scientific and technological missions. These include communications satellites like Starlink; space stations such as the ISS; scientific satellites like the Hubble; Earth observation satellites from companies like Planet Labs, Umbra, and HawkEye 360; GPS; miniature CubeSats for education and research; and military/defense satellites.

Loading next visibility...
Identifier
41187, 2015-081J
Orbit
LEO
Country
Flag of USUS / ORB
Related business
Manufacturer
SNC Louisville
Mission
Operational Commercial Communications
Bus & Motor
SN-100A, Unknown motor
Mass
172 kg wet, 158 kg dry
Launch date (UTC)
2015-12-22 (10 years ago)
Launch vehicle
FALCON 9
Launch site
Air Force Eastern Test Range (AFETR)
Object type
Payload
Rocket body
Debris
Shape & HBR
Box + 1 Pan + 1 Ant, 6.5 m
Radar Cross Section
2.222 m², Medium (>0.1 m² and < 1m²)

Expand to show TLE details & history
Last TLE update: 21 hours ago

TLE from 21 hours ago
0 ORBCOMM FM 108
1 41187U 15081J   25257.37968398  .00000472  00000-0  13761-3 0  9994
2 41187  47.0056  45.7130 0002093 349.7796  10.3047 14.58298511519817
Epoch: 2025-09-14T09:06Z
TLE epoch observation values (Epoch: 2025-09-14T09:06:44.695Z)
Latitude
-0.00002°
Longitude
-84.57277°
Altitude
697.432 km
Speed
7.51 km/s
True Right ascension
03h 02m 51s
True Declination
0° 00' 00"
Sunlit
Object was in full shadow at epoch
Visualization orbit readout
Latitude
Unknown
Longitude
Unknown
Altitude
Unknown
Speed
Unknown
Apparent Right ascension
Unknown
Apparent Declination
Unknown
Sunlit
N/A
Visualization observer readout
Local Sidereal Time
22:36:27
Azimuth
Unknown
Elevation
Unknown
Doppler factor
Unknown
Orbital elements
Apogee altitude
701.389 km
Perigee altitude
698.426 km
Semi-major axis
7,078.044 km
Eccentricity
0.00021
Inclination
47.0056°
RAAN
45.713°
Arg. of periapsis
349.7796°
True anomaly
10.30899°
Mean anomaly
10.3047°
Eccentric anomaly
10.30685°
Mean motion
3.6448 °/min
Orbital period
98.77 mins
BSTAR
0.00013761
Loading maneuver chart data...
Computing Atmospheric mass density...
Loading historical data...
Loading historical data...
Loading historical data...
Loading historical data...
Loading historical data...
Loading historical data...
Loading historical data...

Documentation

Showing up to 5 results
|